Погода в Таллинне

Погода в Таллинне : погода сейчас, прогноз погоды и архив. Всё, что Вы хотите узнать о погоде в Таллинне!

Поиск расширенной информации на нашем сайте:

Другие новости

Новости СМИ2

Главная страница сайта

Новости сайта

03.07.2017

Напоминаем, что на нашем специализированном сайте Метеоцентр.Азия вы можете получить высокодетализированные автоматические прогнозы погоды по пунктам России, СНГ и мира в авиационном формате (включающие направление и скорость ветра, видимость, явления погоды, количество и форму облачности, нижнюю и верхнюю границу облачности).


Погода в Таллинне - сегодня

Время (UTC), дата Ветер
(°,м/с) 
Видим.   Явления Облачность Т
(°С)
Тd
(°С)
f(%) Тe
(°С)
Pmin
(гПа)
dP
(гПа)
Po
(мм)
O2
(г/м3)
Тmin Tmax R s Состояние
почвы
18 18.07.18 070 (В) 4{11}  20000 м    1/0 верхняя 
[Ci fib]
+25 +15.1 54 +34  1012.1  -0.2  756  276  +24.4  +27.2       
21 18.07.18 070 (В) 20000 м    1/1 средняя, верхняя 
[Ac trans|Ci fib]
+22.3 +15.3 65 +31  1012.5  0.4  757  279  +22.3  +27.2       
00 19.07.18 040 (СВ) 20000 м    3/3 средняя, верхняя 
[Ac trans|Ci fib]
+20.8 +15.6 72 +30  1012.6  0.1  757  280  +20.8  +27.2       
03 19.07.18 030 (СВ) 20000 м    4/3 средняя, верхняя 
[Ac trans|Ci fib]
+19.2 +15.7 80 +30  1012.1  -0.5  756  281  +19  +27.1       
06 19.07.18 040 (СВ) 20000 м    5/0 средняя, верхняя 
[Ac trans|Cc]
+22.7 +16.3 67 +33  1012  0.1  756  278  +19  +25       
09 19.07.18 030 (СВ) 20000 м    8/0 средняя, верхняя 
[Ac trans|Cs]
+23.3 +16.7 66 +35  1012.1  0.1  756  277  +19  +23.8       
12 19.07.18 030 (СВ) 5{08}  17000 м    6/1 900 м средняя, верхняя 
[Cu med, cong|Ac trans|Cs]
+24.5 +16.4 61 +35  1011.8  -0.3  756  276  +19  +25.2       
15 19.07.18 060 (СВ) 20000 м    4/1 1410 м средняя, верхняя 
[Cu med, cong|Ac trans|Ci fib]
+24.5 +15.8 58 +34  1011.1  -0.7  755  276  +19.2  +25.2       
18 19.07.18 040 (СВ) 3{08}  20000 м    3/3 средняя, верхняя 
[Ac trans|Cc]
+23.1 +16.3 66 +34  1011.2  0.1  755  277  +21.7  +25.4       
21 19.07.18 330 (СЗ) 20000 м    5/0 средняя, верхняя 
[Ac trans|Cc]
+17.6 +15.8 89 +29  1011.1  -0.1  755  283  +17.6  +25.4       
00 20.07.18 030 (СВ) 20000 м    4/3 средняя, верхняя 
[Ac trans|Ci fib]
+18.1 +16.3 89 +30  1010.5  -0.6  755  282  +17.4  +25.4       
03 20.07.18 010 (С) 16000 м    6/5 средняя, верхняя 
[Ac trans|Cc]
+17.6 +16.2 92 +29  1010  -0.5  755  282  +17.2  +25.4       
06 20.07.18 050 (СВ) 17000 м    8/4 270 м кучево-дожд., средняя, верхняя 
[Cb cap|Ac trans|Cc]
+19.7 +16.9 84 +33  1009.6  -0.4  754  280  +17.2  +23.1       
09 20.07.18 050 (СВ) н/о  слаб. ливневой дождь  10/10 120 м 
[Frnb]
+19.1 +18 93 +34  1009.2  -0.4  754  280  +17.2  +19.8     
12 20.07.18 040 (СВ) 8000 м  слаб. ливневой дождь  9/9 150 м 
[Frnb]
+20 +18.7 92 +36  1008.7  -0.5  754  279  +17.2  +20.3     
15 20.07.18 030 (СВ) 12000 м    8/5 180 м средняя, верхняя 
[St|Ac trans|Cc]
+20.6 +18.5 88 +36  1007.6  -1.1  753  278  +17.3  +21.1       
18 20.07.18 020 (С) 8000 м  дымка{ливн. осадки}  9/0 средняя 
[Ac trans]
+19.2 +17.8 92 +34  1007.2  -0.4  752  279  +18.5  +22       
21 20.07.18 020 (С) 6000 м  дымка  9/0 средняя 
[Ac trans]
+18.8 +17.7 93 +34  1006.5  -0.7  752  279  +18.3  +22       
00 21.07.18 360 (С) 3800 м  дымка  9/0 средняя, верхняя 
[Ac trans|Cc]
+17.7 +17 96 +31  1006  -0.5  752  281  +17.7  +22       
03 21.07.18 280 (З) 0200 м  туман  ?/? 60 
+17.4 +17.1 98 +31  1005.5  -0.5  751  281  +16.8  +22       
06 21.07.18 250 (З) 6000 м  дымка{туман}  10/10 100 м 
[St]
+19.4 +18.3 93 +35  1005.3  0.2  751  278  +16.8  +19.5       
09 21.07.18 320 (СЗ) 18000 м    8/8 500 м кучево-дожд. 
[Cb cap]
+22.4 +18.9 81 +39  1005.3  751  275  +16.8  +23.8       
12 21.07.18 270 (З) 20000 м    6/6 600 м кучево-дожд. 
[Cb cap]
+24.9 +17.2 62 +38  1005.3  751  274  +16.8  +25.2       
15 21.07.18 270 (З) 4{08}  20000 м    3/1 800 м верхняя 
[Cu Sc|Ci fib]
+23.5 +16 63 +34  1005.5  0.2  751  275  +17.4  +25.4       
18 21.07.18 250 (З) 20000 м    3/1 450 м верхняя 
[Cu hum|Ci fib]
+20.9 +17.3 80 +34  1006.1  0.6  752  277  +19.4  +25.4       
Время (UTC), дата Ветер
(°,м/с) 
Видим.   Явления Облачность Т
(°С)
Тd
(°С)
f(%) Тe
(°С)
Pmin
(гПа)
dP
(гПа)
Po
(мм)
O2
(г/м3)
Тmin Tmax R s Состояние
почвы

Для получения пояснительной информации подведите курсор к названию столбца.

ПОГОДА в Таллинне - архив

Всё, что Вы хотите узнать о погоде в Таллинне - удобно и подробно!

Выберите нужную дату (начиная с 1 января 2015* года) и нажмите кнопку "Найти".
Будут отображены архивные сводки погоды по пункту Таллинн, начиная с указанной даты.


Отображать данные в формате CSV (для использования в таблицах Excel)


Внимание! Наш архив погоды предназначен исключительно для личного некоммерческого использования в познавательных целях. Если Вам необходимы официальные справки о состоянии погоды (для производственных, юридических, коммерческих и т.п. целей), обращайтесь в органы Росгидромета.

*Примечание: данная дата относится к архиву по метеостанциям СССР (Россия, СНГ, Балтия).
Архив по метеостанциям Зарубежной Европы и Азии (кроме Китая) хранится 10 дней, по другим регионам земного шара (Китай, Африка, Америка, Австралия, Океания) - 1 день.

Таллинн - район местоположения метеостанции


Название, широта, долгота, высота метеостанции:
Таллинн 59.4°ш. 24.6°д. 34 м над ур. моря [Эстония]

Дополнительная информация

В oтличие oт бoльшинства пoгoдных сайтoв мы публикуем пoдрoбную метеoинфoрмацию в детальнoм прoфессиoнальнoм фoрмате.

Характеристики температуры и влажнoсти вoздуха измеряются на высoте 2 м в тени вдали oт зданий и деревьев.
Скoрoсть ветра измеряется на высoте 10 м (на урoвне рoста челoвека скoрoсть ветра ниже в 1.5-2 раза). Если метеoстанция нахoдится в гoрoде или в лесу, тo скoрoсть ветра занижена на 2-4 м/с пo сравнению с oткрытым местoм. Скoрoсть ветра над акватoриями крупных рек и oзёр, а также на вершинах хoлмoв на 2-5 м/с выше, чем в oбычных услoвиях.
Атмoсфернoе давление в разных тoчках местнoсти мoжет значительнo oтличаться oт давления на метеoстанции, в зависимoсти oт услoвий рельефа (при пoдъёме на 10 м давление пoнижается примернo на 1 мм рт.ст.).